CW1967 Weather Reports


time (UTC)temp
C
wind
direction
speed
KPH
gust
KPH
rain 1hr
cm
rain 24hr
cm
rain mn
cm
humidity
%
barometer
mb
20260510081704 15 242 1.6 3.2 0.00 0.03 0.00 96 1013.9
20260510081555 15 37 3.2 8.0 0.00 0.10 0.10 90 1008.7
20260510081305 -17 344 0.0 0.0 0.00 0.00 0.00 1013.3
20260510081204 15 251 1.6 3.2 0.00 0.03 0.00 96 1014.0
20260510080801 -17 346 0.0 1.6 0.00 0.00 0.00 1013.4
20260510080704 15 251 3.2 3.2 0.00 0.03 0.00 96 1014.0
20260510080255 -17 354 1.6 1.6 0.00 0.00 0.00 1013.3
20260510080104 15 33 1.6 6.4 0.00 0.10 0.10 90 1008.7
20260510075753 -17 351 0.0 0.0 0.00 0.00 0.00 1013.1
20260510075704 15 275 1.6 3.2 0.00 0.03 0.00 95 1013.9
20260510075250 -17 351 0.0 1.6 0.00 0.00 0.00 1013.1
20260510075204 15 270 1.6 3.2 0.00 0.03 0.00 95 1013.9
20260510074747 -17 359 0.0 0.0 0.00 0.00 0.00 1013.2
20260510074703 15 268 1.6 3.2 0.00 0.03 0.00 95 1013.7
20260510074554 15 85 3.2 6.4 0.00 0.10 0.10 90 1008.7
20260510074244 -17 2 0.0 0.0 0.00 0.00 0.00 1013.2
20260510074204 15 254 1.6 3.2 0.00 0.03 0.00 95 1013.7
20260510073740 -17 3 0.0 0.0 0.00 0.00 0.00 1013.2
20260510073703 15 220 1.6 3.2 0.00 0.03 0.00 95 1013.5
20260510073236 -17 354 0.0 0.0 0.00 0.00 0.00 1013.1
20260510073204 15 249 1.6 3.2 0.00 0.03 0.00 95 1013.7
20260510073113 14 329 0.0 0.0 0.00 0.10 0.10 90 1008.6
20260510072731 -17 339 0.0 0.0 0.00 0.00 0.00 1013.2
20260510072704 15 288 1.6 3.2 0.00 0.03 0.00 95 1013.8
20260510072228 -17 334 0.0 0.0 0.00 0.00 0.00 1012.9
20260510072204 15 262 1.6 1.6 0.00 0.03 0.00 95 1013.7
20260510071725 -17 358 0.0 0.0 0.00 0.00 0.00 1013.2
20260510071704 15 226 1.6 3.2 0.00 0.03 0.00 95 1013.7
20260510071553 13 65 0.0 12.9 0.00 0.10 0.10 90 1008.5
20260510071221 -17 2 0.0 0.0 0.00 0.00 0.00 1013.0
20260510071204 15 245 1.6 3.2 0.00 0.03 0.00 95 1013.6
20260510070720 -17 61 0.0 1.6 0.00 0.00 0.00 1012.9
20260510070704 15 234 1.6 1.6 0.00 0.03 0.00 95 1013.6
20260510070217 -17 36 0.0 1.6 0.00 0.00 0.00 1012.8
20260510070204 15 224 0.0 3.2 0.00 0.03 0.00 95 1013.7
20260510070056 13 26 3.2 6.4 0.00 0.10 0.10 89 1008.6
20260510065712 -17 37 0.0 0.0 0.00 0.00 0.00 1012.9
20260510065704 15 219 0.0 3.2 0.00 0.03 0.00 95 1013.7
20260510065208 -17 21 0.0 0.0 0.00 0.00 0.00 1013.0
20260510064705 -17 29 0.0 0.0 0.00 0.00 0.00 1012.9
20260510064626 13 171 3.2 6.4 0.00 0.10 0.10 89 1008.8
20260510064204 15 222 0.0 3.2 0.00 0.03 0.00 94 1013.8
20260510063704 15 226 1.6 3.2 0.00 0.03 0.00 94 1013.7
20260510063659 -17 16 0.0 0.0 0.00 0.00 0.00 1013.1
20260510063204 15 226 1.6 3.2 0.00 0.03 0.00 94 1013.6
20260510063155 -17 18 0.0 0.0 0.00 0.00 0.00 1013.3
20260510063051 13 213 3.2 6.4 0.00 0.10 0.10 89 1008.7
20260510062703 15 312 3.2 4.8 0.00 0.03 0.00 94 1013.7
20260510062652 -17 18 0.0 0.0 0.00 0.00 0.00 1013.2
20260510062204 15 226 0.0 3.2 0.00 0.03 0.00 94 1013.9
20260510062148 -17 19 0.0 0.0 0.00 0.00 0.00 1013.2
20260510061704 15 153 1.6 3.2 0.00 0.03 0.00 94 1013.8
20260510061643 -17 8 0.0 0.0 0.00 0.00 0.00 1013.4
20260510061549 13 165 6.4 11.3 0.00 0.10 0.10 88 1008.6
20260510061204 15 190 0.0 3.2 0.00 0.03 0.00 94 1013.9
20260510061141 -17 7 0.0 0.0 0.00 0.00 0.00 1013.6
20260510060704 15 155 0.0 3.2 0.00 0.03 0.00 94 1014.0
20260510060637 19 10 0.0 0.0 0.00 0.00 0.00 99 1013.7
20260510060204 15 203 1.6 3.2 0.00 0.03 0.00 94 1013.9
20260510060134 19 11 0.0 0.0 0.00 0.00 0.00 99 1013.7
20260510060046 14 151 4.8 11.3 0.03 0.10 0.10 88 1008.7
20260510055704 15 236 0.0 3.2 0.00 0.03 0.00 94 1013.8
20260510055630 19 9 0.0 0.0 0.00 0.00 0.00 99 1013.7
20260510055203 15 206 1.6 3.2 0.00 0.03 0.00 94 1013.8
20260510055128 19 6 0.0 0.0 0.00 0.00 0.00 99 1013.6
20260510054623 19 9 0.0 0.0 0.00 0.00 0.00 99 1013.7
20260510054547 14 140 3.2 9.7 0.03 0.10 0.10 88 1008.4
20260510054203 15 46 0.0 0.0 0.00 0.03 0.00 94 1013.9
20260510054119 19 356 0.0 0.0 0.00 0.00 0.00 99 1013.9
20260510053703 15 217 0.0 1.6 0.00 0.03 0.00 94 1014.1
20260510053618 19 357 0.0 0.0 0.00 0.00 0.00 99 1013.9
20260510053204 15 229 0.0 1.6 0.00 0.03 0.00 94 1014.0
20260510053115 19 1 0.0 0.0 0.00 0.00 0.00 99 1014.0
20260510053047 15 148 4.8 12.9 0.03 0.10 0.10 87 1008.3
20260510052703 15 205 0.0 1.6 0.00 0.03 0.00 94 1014.1
20260510052611 19 353 0.0 0.0 0.00 0.00 0.00 99 1013.9
20260510052203 15 252 0.0 3.2 0.00 0.03 0.00 93 1014.0
20260510052108 19 6 0.0 0.0 0.00 0.00 0.00 99 1013.9
20260510051703 15 267 1.6 3.2 0.00 0.03 0.00 93 1014.1
20260510051603 19 337 0.0 0.0 0.00 0.00 0.00 99 1014.3
20260510051550 15 153 11.3 17.7 0.03 0.10 0.10 86 1008.3
20260510051203 15 237 0.0 3.2 0.00 0.03 0.00 93 1014.1
20260510051101 19 353 0.0 0.0 0.00 0.00 0.00 99 1014.1
20260510050703 15 251 0.0 3.2 0.00 0.03 0.00 93 1014.0
20260510050558 19 359 0.0 0.0 0.00 0.00 0.00 99 1014.1
20260510050204 15 229 1.6 1.6 0.00 0.03 0.00 93 1014.1
20260510050055 19 324 0.0 0.0 0.00 0.00 0.00 99 1013.8
20260510050049 15 156 6.4 14.5 0.00 0.08 0.08 86 1008.5
20260510045703 15 280 1.6 3.2 0.00 0.03 0.00 93 1014.0
20260510045552 19 270 0.0 0.0 0.00 1.57 1.57 99 1013.7
20260510045204 15 272 1.6 3.2 0.00 0.03 0.00 93 1013.9
20260510045048 19 34 0.0 0.0 0.00 1.57 1.57 99 1013.3
20260510044703 15 265 1.6 3.2 0.00 0.03 0.00 93 1014.1
20260510044544 19 68 1.6 1.6 0.00 1.57 1.57 99 1013.4
20260510044203 15 228 1.6 3.2 0.00 0.03 0.00 93 1013.9
20260510044042 19 84 1.6 1.6 0.00 1.57 1.57 99 1013.5
20260510043704 15 225 1.6 3.2 0.00 0.03 0.00 92 1013.9
20260510043537 19 33 0.0 0.0 0.00 1.57 1.57 99 1013.9
20260510043043 14 107 3.2 8.0 0.00 0.08 0.08 87 1008.5
20260510043033 19 25 0.0 0.0 0.00 1.57 1.57 99 1014.1
20260510042703 15 242 0.0 1.6 0.00 0.03 0.00 92 1013.9
20260510042527 19 26 0.0 0.0 0.00 1.57 1.57 99 1014.3
20260510042203 15 235 1.6 3.2 0.00 0.03 0.00 92 1013.8
20260510042022 19 10 0.0 0.0 0.00 1.57 1.57 99 1014.3
20260510041703 15 225 1.6 3.2 0.00 0.03 0.00 92 1013.9
20260510041541 14 97 3.2 4.8 0.00 0.08 0.08 86 1008.1
20260510041520 19 11 0.0 0.0 0.00 1.57 1.57 99 1014.3
20260510041203 15 245 0.0 1.6 0.00 0.03 0.00 91 1013.8
20260510041017 20 17 0.0 0.0 0.00 1.57 1.57 99 1014.3
20260510040704 15 283 0.0 1.6 0.00 0.03 0.00 91 1013.7
20260510040514 20 9 0.0 1.6 0.00 1.57 1.57 99 1014.5
20260510040204 15 262 1.6 3.2 0.00 0.03 0.00 91 1013.7
20260510040045 14 76 3.2 4.8 0.00 0.08 0.08 86 1008.0
20260510040009 20 22 0.0 0.0 0.00 1.57 1.57 99 1014.3
20260510035703 15 258 3.2 3.2 0.00 0.03 0.03 91 1013.8
20260510035507 20 53 0.0 0.0 0.00 1.57 1.57 99 1014.3
20260510035203 15 277 1.6 3.2 0.00 0.03 0.03 91 1013.6
20260510035005 20 36 0.0 0.0 0.00 1.57 1.57 99 1014.5
20260510034703 15 262 0.0 1.6 0.00 0.03 0.03 90 1013.7
20260510034547 15 107 3.2 6.4 0.00 0.08 0.08 85 1008.2
20260510034504 20 6 0.0 0.0 0.00 1.57 1.57 99 1014.6
20260510034203 15 200 0.0 3.2 0.00 0.03 0.03 90 1013.6
20260510034000 20 6 0.0 0.0 0.00 1.57 1.57 99 1014.5
20260510033456 20 6 0.0 0.0 0.00 1.57 1.57 99 1014.5
20260510033203 15 252 1.6 3.2 0.00 0.03 0.03 90 1013.5
20260510033037 15 77 3.2 9.7 0.00 0.08 0.08 84 1008.5
20260510032954 20 12 0.0 0.0 0.00 1.57 1.57 99 1014.4
20260510032703 15 270 1.6 3.2 0.00 0.03 0.03 89 1013.5
20260510032450 20 22 0.0 0.0 0.00 1.57 1.57 99 1014.5
20260510032204 16 274 1.6 1.6 0.00 0.03 0.03 89 1013.5
20260510031945 20 15 0.0 0.0 0.00 1.57 1.57 99 1014.4
20260510031535 15 53 8.0 12.9 0.00 0.08 0.08 83 1008.4
20260510031441 20 15 0.0 0.0 0.00 1.57 1.57 99 1014.2
20260510031204 16 247 0.0 3.2 0.00 0.03 0.03 88 1013.5
20260510030937 20 18 0.0 0.0 0.00 1.57 1.57 99 1014.1
20260510030704 16 248 1.6 3.2 0.00 0.03 0.03 88 1013.5
20260510030432 20 357 0.0 0.0 0.00 1.57 1.57 99 1014.1
20260510030204 16 248 1.6 3.2 0.00 0.03 0.03 88 1013.4
20260510030033 15 76 0.0 3.2 0.00 0.08 0.08 83 1008.6
20260510025930 20 0 0.0 0.0 0.00 1.57 1.57 99 1014.0
20260510025703 16 220 1.6 3.2 0.00 0.03 0.03 87 1013.3
20260510025427 20 2 0.0 0.0 0.00 1.57 1.57 99 1014.0
20260510024925 20 12 0.0 0.0 0.00 1.57 1.57 99 1014.0
20260510024703 16 226 0.0 1.6 0.00 0.03 0.03 87 1013.4
20260510024532 15 76 1.6 8.0 0.00 0.08 0.08 82 1008.8
20260510024421 20 16 0.0 0.0 0.00 1.57 1.57 99 1013.7
20260510024203 16 214 0.0 1.6 0.00 0.03 0.03 87 1013.4
20260510023917 20 70 0.0 0.0 0.00 1.57 1.57 99 1013.5
20260510023704 16 221 1.6 3.2 0.00 0.03 0.03 87 1013.4
20260510023413 20 29 0.0 0.0 0.18 1.57 1.57 99 1013.8
20260510023030 15 84 3.2 11.3 0.00 0.08 0.08 82 1009.0
20260510022911 20 6 0.0 0.0 0.18 1.57 1.57 99 1013.8
20260510022704 16 239 1.6 3.2 0.00 0.03 0.03 86 1013.4
20260510022410 20 33 0.0 0.0 0.00 1.55 1.55 99 1013.8
20260510022203 16 234 1.6 3.2 0.00 0.03 0.03 86 1013.5
20260510021909 20 18 0.0 0.0 0.00 1.55 1.55 99 1013.7
20260510021703 16 280 0.0 1.6 0.00 0.03 0.03 85 1013.3
20260510021532 15 74 4.8 6.4 0.00 0.08 0.08 83 1009.3
20260510021407 20 14 0.0 0.0 0.00 1.55 1.55 99 1013.9
20260510021203 16 220 1.6 1.6 0.00 0.03 0.03 85 1013.3
20260510020903 20 353 0.0 1.6 0.00 1.55 1.55 99 1013.9
20260510020704 17 225 0.0 3.2 0.00 0.03 0.03 84 1013.2
20260510020358 20 1 0.0 0.0 0.00 1.55 1.55 99 1013.7
20260510020203 17 225 0.0 1.6 0.00 0.03 0.03 84 1013.3
20260510020030 15 54 3.2 4.8 0.00 0.08 0.08 83 1009.3
20260510015854 20 20 0.0 1.6 0.00 1.55 1.55 99 1013.7
20260510015350 20 20 1.6 1.6 0.00 1.55 1.55 99 1013.6
20260510014845 20 17 0.0 1.6 0.00 1.55 1.55 99 1013.7
20260510014704 17 238 1.6 3.2 0.00 0.03 0.03 83 1013.3
20260510014527 15 72 1.6 6.4 0.00 0.08 0.08 83 1009.3
20260510014343 20 6 0.0 0.0 0.00 1.55 1.55 99 1013.6
20260510014204 17 269 1.6 3.2 0.00 0.03 0.03 83 1013.5
20260510013839 20 2 0.0 0.0 0.00 1.55 1.55 99 1013.8
20260510013335 20 13 0.0 0.0 0.00 1.55 1.55 99 1013.8
20260510013203 17 239 0.0 3.2 0.00 0.03 0.03 82 1013.4
20260510013024 15 71 4.8 6.4 0.00 0.08 0.08 83 1009.5
20260510012830 20 6 0.0 0.0 0.00 1.55 1.55 99 1013.9
20260510012704 17 154 0.0 1.6 0.00 0.03 0.03 81 1013.3
20260510012330 20 249 1.6 1.6 0.00 1.55 1.55 99 1013.9
20260510012204 17 219 0.0 3.2 0.00 0.03 0.03 81 1013.4
20260510011825 20 246 1.6 1.6 0.00 1.55 1.55 99 1014.1
20260510011703 18 267 1.6 1.6 0.00 0.03 0.03 81 1013.4
20260510011522 15 357 3.2 6.4 0.00 0.08 0.08 83 1009.9
20260510011320 20 353 0.0 0.0 0.00 1.55 1.55 99 1013.9
20260510011203 18 269 0.0 1.6 0.00 0.03 0.03 80 1013.3
20260510010817 20 12 0.0 0.0 0.00 1.55 1.55 99 1013.8
20260510010703 18 264 1.6 1.6 0.00 0.03 0.03 80 1013.2
20260510010315 20 30 0.0 0.0 0.00 1.55 1.55 99 1014.0
20260510010204 18 250 1.6 3.2 0.00 0.03 0.03 79 1013.1
20260510010020 15 14 1.6 12.9 0.00 0.08 0.08 81 1010.0
20260510005811 20 350 0.0 0.0 0.13 1.55 1.55 99 1014.2
20260510005307 20 351 0.0 0.0 0.13 1.55 1.55 99 1014.2
20260510005204 18 204 0.0 1.6 0.00 0.03 0.03 78 1012.7
20260510004805 20 336 0.0 0.0 0.00 1.52 1.52 99 1014.0
20260510004703 18 231 0.0 1.6 0.00 0.03 0.03 77 1012.7
20260510004520 16 40 4.8 11.3 0.00 0.08 0.08 80 1010.2
20260510004302 20 340 0.0 1.6 0.00 1.52 1.52 99 1014.0
20260510004204 19 256 0.0 1.6 0.00 0.03 0.03 76 1012.7
20260510003800 20 325 0.0 1.6 0.00 1.52 1.52 99 1013.7
20260510003704 19 280 1.6 1.6 0.00 0.03 0.03 76 1012.7
20260510003257 20 350 0.0 0.0 0.00 1.52 1.52 99 1013.4
20260510003203 19 239 1.6 3.2 0.00 0.03 0.03 75 1012.5
20260510003021 15 179 0.0 6.4 0.00 0.08 0.08 80 1010.3
20260510002755 20 8 0.0 0.0 0.00 1.52 1.52 99 1013.2
20260510002703 20 225 1.6 3.2 0.00 0.03 0.03 74 1012.6
20260510002253 20 6 0.0 0.0 0.00 1.52 1.52 99 1013.1
20260510002204 20 281 0.0 3.2 0.00 0.03 0.03 74 1012.7
20260510001749 20 27 0.0 0.0 0.00 1.52 1.52 99 1013.2
20260510001704 20 219 1.6 3.2 0.00 0.03 0.03 73 1012.6
20260510001517 15 174 0.0 8.0 0.00 0.08 0.08 82 1010.4
20260510001248 20 358 0.0 0.0 0.00 1.52 1.52 99 1013.1
20260510001204 20 199 1.6 3.2 0.00 0.03 0.03 72 1012.5
20260510000743 20 348 0.0 0.0 0.00 1.52 1.52 99 1013.2
20260510000704 21 195 1.6 3.2 0.00 0.03 0.03 71 1012.4
20260510000241 20 349 0.0 0.0 0.00 1.52 1.52 99 1012.8
20260510000204 21 199 0.0 3.2 0.00 0.03 0.03 67 1012.3
20260510000019 16 159 1.6 12.9 0.00 0.08 0.08 80 1010.2
20260509235737 20 346 1.6 1.6 0.00 1.52 1.52 99 1012.8
20260509235704 21 249 1.6 3.2 0.00 0.03 0.03 69 1012.4
20260509235234 20 359 0.0 1.6 0.00 1.52 1.52 99 1012.6
20260509235204 21 240 1.6 3.2 0.00 0.03 0.03 68 1012.1
20260509234730 20 16 1.6 1.6 0.18 1.52 1.52 99 1012.2
20260509234704 22 243 3.2 4.8 0.00 0.03 0.03 65 1012.2
20260509234516 16 84 6.4 16.1 0.00 0.08 0.08 80 1010.2
20260509234227 20 47 1.6 1.6 0.18 1.52 1.52 99 1012.0
20260509234204 22 225 3.2 8.0 0.00 0.03 0.03 64 1012.1
20260509233725 20 6 0.0 0.0 0.00 1.50 1.50 99 1012.2
20260509233704 22 19 1.6 4.8 0.00 0.03 0.03 64 1012.3
20260509233222 20 32 0.0 0.0 0.00 1.50 1.50 99 1012.6
20260509233203 22 347 3.2 4.8 0.00 0.03 0.03 64 1012.1
20260509233020 16 122 12.9 17.7 0.08 0.08 0.08 80 1010.1
20260509232718 20 10 0.0 0.0 0.00 1.50 1.50 99 1012.5
20260509232703 22 305 3.2 4.8 0.00 0.03 0.03 63 1012.1
20260509232216 20 22 0.0 0.0 0.00 1.50 1.50 99 1012.7
20260509232203 22 175 1.6 8.0 0.00 0.03 0.03 64 1011.9
20260509231712 20 136 1.6 1.6 0.00 1.50 1.50 99 1012.7
20260509231704 23 191 3.2 4.8 0.00 0.03 0.03 63 1012.0
20260509231514 15 99 9.7 17.7 0.08 0.08 0.08 81 1010.2
20260509231209 20 11 0.0 0.0 0.00 1.50 1.50 99 1012.9
20260509231204 23 306 1.6 3.2 0.00 0.03 0.03 64 1012.1
20260509230707 20 7 0.0 0.0 0.00 1.50 1.50 99 1012.8
20260509230703 23 128 1.6 4.8 0.00 0.03 0.03 61 1012.1
20260509230203 20 136 1.6 1.6 0.13 1.50 1.50 99 1012.9
20260509230014 15 96 12.9 22.5 0.08 0.08 0.08 82 1010.4
20260509225659 20 354 0.0 0.0 0.13 1.50 1.50 99 1013.3
20260509225203 23 265 1.6 8.0 0.00 0.03 0.03 61 1012.1
20260509225155 20 9 0.0 0.0 0.00 1.47 1.47 99 1013.3
20260509224703 24 261 3.2 8.0 0.00 0.03 0.03 59 1012.1
20260509224651 20 10 0.0 0.0 0.00 1.47 1.47 99 1013.2
20260509224512 16 85 12.9 25.7 0.08 0.08 0.08 82 1010.3
20260509224204 23 270 4.8 9.7 0.00 0.03 0.03 57 1012.1
20260509224148 20 342 0.0 0.0 0.00 1.47 1.47 99 1013.2
20260509223703 23 328 4.8 12.9 0.00 0.03 0.03 57 1012.1
20260509223644 20 334 1.6 1.6 0.00 1.47 1.47 99 1013.1
20260509223203 23 287 4.8 14.5 0.00 0.03 0.03 57 1012.0
20260509223142 20 358 0.0 0.0 0.00 1.47 1.47 99 1012.9
20260509223009 17 109 16.1 29.0 0.00 0.00 0.00 78 1010.8
20260509222703 23 334 1.6 9.7 0.00 0.03 0.03 60 1012.3
20260509222639 20 335 0.0 0.0 0.00 1.47 1.47 99 1013.1
20260509222204 23 287 3.2 8.0 0.00 0.03 0.03 58 1012.1
20260509222134 20 338 0.0 0.0 0.00 1.47 1.47 99 1013.0
20260509221704 23 98 1.6 8.0 0.00 0.03 0.03 59 1012.1
20260509221630 20 348 0.0 1.6 0.00 1.47 1.47 99 1012.7
20260509221506 16 103 19.3 32.2 0.00 0.00 0.00 87 1010.9
20260509221204 23 254 1.6 11.3 0.00 0.03 0.03 57 1012.0
20260509221126 20 17 0.0 0.0 0.18 1.47 1.47 99 1012.7
20260509220703 23 174 3.2 9.7 0.00 0.03 0.03 58 1012.0
20260509220621 20 10 0.0 1.6 0.18 1.47 1.47 99 1012.8
20260509220203 23 287 3.2 11.3 0.00 0.03 0.03 55 1012.0
20260509220113 21 127 1.6 1.6 0.00 1.45 1.45 99 1012.7
20260509220002 16 48 4.8 8.0 0.00 0.00 0.00 87 1010.4
20260509215704 24 316 6.4 11.3 0.00 0.03 0.03 55 1012.1
20260509215609 21 16 0.0 0.0 0.00 1.45 1.45 99 1012.9
20260509215203 24 246 1.6 8.0 0.00 0.03 0.03 56 1012.0
20260509215106 21 5 0.0 0.0 0.00 1.45 1.45 99 1012.9
20260509214603 21 346 0.0 0.0 0.00 1.45 1.45 99 1012.8
20260509214502 16 18 4.8 6.4 0.00 0.00 0.00 86 1010.1
20260509214204 24 262 4.8 11.3 0.00 0.03 0.03 54 1011.7
20260509214059 21 317 1.6 1.6 0.00 1.45 1.45 99 1012.6
20260509213555 21 347 1.6 1.6 0.00 1.45 1.45 98 1012.8
20260509213204 24 318 4.8 11.3 0.00 0.03 0.03 53 1011.7
20260509213052 21 1 0.0 0.0 0.00 1.45 1.45 98 1012.3
20260509213002 16 5 1.6 4.8 0.00 0.00 0.00 86 1010.0
20260509212703 24 321 6.4 11.3 0.00 0.03 0.03 52 1011.7
20260509212550 21 320 0.0 0.0 0.00 1.45 1.45 98 1012.6
20260509212203 24 306 4.8 9.7 0.00 0.03 0.03 52 1011.7
20260509212046 21 33 0.0 0.0 0.00 1.45 1.45 98 1012.5
20260509211703 25 257 3.2 11.3 0.00 0.03 0.03 52 1011.7
20260509211607 16 5 1.6 6.4 0.00 0.00 0.00 86 1010.0
20260509211542 20 42 0.0 0.0 0.00 1.45 1.45 98 1012.7
20260509211204 25 271 3.2 8.0 0.00 0.03 0.03 50 1011.8
20260509211039 21 306 0.0 0.0 0.00 1.45 1.45 99 1012.5
20260509210536 20 359 0.0 0.0 0.00 1.45 1.45 98 1012.8
20260509210203 25 265 4.8 16.1 0.00 0.03 0.03 51 1011.7
20260509210101 16 7 3.2 8.0 0.00 0.00 0.00 86 1010.0
20260509210032 21 347 1.6 3.2 0.00 1.45 1.45 99 1012.9
20260509205704 25 275 9.7 20.9 0.00 0.03 0.03 50 1011.7
20260509205526 21 18 0.0 0.0 0.00 1.45 1.45 99 1013.1
20260509205203 26 265 6.4 11.3 0.00 0.03 0.03 50 1011.8
20260509205022 21 232 1.6 1.6 0.00 1.45 1.45 99 1012.9
20260509204704 26 187 1.6 14.5 0.00 0.03 0.03 50 1011.8
20260509204603 16 350 1.6 3.2 0.00 0.00 0.00 86 1010.3
20260509204518 21 309 1.6 1.6 0.00 1.45 1.45 98 1012.7
20260509204203 25 314 6.4 14.5 0.00 0.03 0.03 51 1011.9
20260509204015 21 342 1.6 1.6 0.00 1.45 1.45 98 1012.8
20260509203704 25 243 6.4 12.9 0.00 0.03 0.03 51 1011.8
20260509203511 21 313 1.6 1.6 0.00 1.45 1.45 97 1012.6
20260509203204 25 321 3.2 20.9 0.00 0.03 0.03 52 1011.8
20260509203100 16 350 1.6 4.8 0.00 0.00 0.00 86 1010.4
20260509203009 21 23 0.0 0.0 0.00 1.45 1.45 97 1012.5
20260509202704 25 295 11.3 22.5 0.00 0.03 0.03 50 1011.5
20260509202503 21 354 1.6 1.6 0.00 1.45 1.45 98 1012.5
20260509202204 25 240 6.4 20.9 0.00 0.03 0.03 50 1011.8
20260509201959 21 300 1.6 1.6 0.00 1.45 1.45 96 1012.1
20260509201703 26 298 6.4 12.9 0.00 0.03 0.03 49 1011.6
20260509201558 16 350 1.6 4.8 0.00 0.00 0.00 86 1010.3
20260509201454 21 321 0.0 0.0 0.00 1.45 1.45 98 1012.4
20260509201203 25 261 8.0 16.1 0.00 0.03 0.03 50 1011.7
20260509200952 21 24 1.6 1.6 0.00 1.45 1.45 98 1012.0
20260509200704 25 233 6.4 20.9 0.00 0.03 0.03 50 1011.4
20260509200446 21 340 1.6 1.6 0.00 1.45 1.45 96 1011.7
20260509200204 25 275 6.4 20.9 0.00 0.03 0.03 50 1011.5
20260509200110 17 351 3.2 9.7 0.00 0.00 0.00 86 1010.1
20260509195943 21 7 0.0 0.0 0.00 1.45 1.45 97 1011.5
20260509195703 25 298 8.0 16.1 0.00 0.03 0.03 50 1011.6
20260509195439 21 322 1.6 8.0 0.00 1.45 1.45 95 1010.4
20260509195203 25 281 9.7 22.5 0.00 0.03 0.03 50 1011.6
20260509194938 21 59 1.6 1.6 0.00 1.45 1.45 95 1010.3
20260509194704 25 246 8.0 22.5 0.00 0.03 0.03 51 1011.6
20260509194559 17 329 6.4 9.7 0.00 0.00 0.00 86 1010.0
20260509194434 21 162 1.6 1.6 0.00 1.45 1.45 94 1010.5
20260509193931 22 62 1.6 1.6 0.00 1.45 1.45 92 1011.1
20260509193704 25 252 8.0 19.3 0.00 0.03 0.03 48 1012.0
20260509193431 21 5 0.0 0.0 0.00 1.45 1.45 95 1011.5
20260509193204 25 283 9.7 20.9 0.00 0.03 0.03 51 1011.9
20260509193102 17 313 4.8 9.7 0.00 0.00 0.00 85 1010.2
20260509192927 22 13 0.0 0.0 0.00 1.45 1.45 91 1011.0
20260509192704 25 278 11.3 22.5 0.00 0.03 0.03 49 1012.0
20260509192424 22 341 0.0 1.6 0.00 1.45 1.45 90 1011.3
20260509192203 25 273 9.7 22.5 0.00 0.03 0.03 49 1012.1
20260509191919 22 286 1.6 1.6 0.00 1.45 1.45 90 1010.8
20260509191559 17 311 1.6 8.0 0.00 0.00 0.00 84 1010.1
20260509191414 22 329 0.0 0.0 0.00 1.45 1.45 92 1011.0
20260509191204 25 252 11.3 20.9 0.00 0.03 0.03 49 1012.2
20260509190911 22 356 0.0 0.0 0.00 1.45 1.45 92 1010.8
20260509190704 24 277 8.0 24.1 0.00 0.03 0.03 51 1012.2
20260509190408 22 268 1.6 3.2 0.00 1.45 1.45 92 1010.7
20260509190204 24 277 11.3 20.9 0.00 0.03 0.03 51 1012.5
20260509190058 17 277 3.2 4.8 0.00 0.00 0.00 82 1010.2
20260509185906 21 1 0.0 0.0 0.00 1.45 1.45 93 1010.5
20260509185704 24 43 8.0 19.3 0.00 0.03 0.03 51 1012.4
20260509185403 22 288 0.0 1.6 0.00 1.45 1.45 93 1010.3
20260509184859 22 1 0.0 0.0 0.00 1.45 1.45 93 1010.2
20260509184704 25 200 4.8 11.3 0.00 0.03 0.03 49 1012.5
20260509184556 18 315 3.2 6.4 0.00 0.00 0.00 81 1010.0
20260509184356 22 4 1.6 1.6 0.00 1.45 1.45 93 1010.5
20260509184204 24 247 4.8 29.0 0.00 0.03 0.03 51 1012.6
20260509183854 23 30 1.6 1.6 0.00 1.45 1.45 90 1010.4
20260509183704 24 271 8.0 27.4 0.00 0.03 0.03 50 1012.6
20260509183348 23 166 1.6 3.2 0.00 1.45 1.45 89 1010.6
20260509183204 23 283 11.3 24.1 0.00 0.03 0.03 52 1012.4
20260509183105 18 300 1.6 6.4 0.00 0.00 0.00 80 1010.0
20260509182844 23 57 1.6 1.6 0.00 1.45 1.45 89 1011.1
20260509182703 23 292 11.3 20.9 0.00 0.03 0.03 52 1012.5
20260509182341 22 22 0.0 1.6 0.00 1.45 1.45 92 1011.4
20260509182203 23 306 9.7 22.5 0.00 0.03 0.03 50 1012.6
20260509181839 22 3 1.6 3.2 0.00 1.45 1.45 93 1011.8
20260509181704 24 290 8.0 20.9 0.00 0.03 0.03 52 1012.4
20260509181555 18 292 3.2 6.4 0.00 0.00 0.00 79 1009.9
20260509181336 21 194 1.6 1.6 0.00 1.45 1.45 96 1012.1
20260509181204 23 272 9.7 25.7 0.00 0.03 0.03 52 1012.6
20260509180833 21 81 0.0 1.6 0.00 1.45 1.45 97 1012.3
20260509180329 20 150 0.0 1.6 0.00 1.45 1.45 99 1012.7
20260509180204 23 254 9.7 16.1 0.00 0.03 0.03 52 1012.4
20260509180055 18 305 4.8 8.0 0.00 0.00 0.00 77 1009.7
20260509175826 20 19 0.0 0.0 0.00 1.45 1.45 99 1012.7
20260509175704 23 303 8.0 24.1 0.00 0.03 0.03 52 1012.4
20260509175322 19 127 3.2 3.2 0.00 1.45 1.45 99 1012.9
20260509175203 24 239 11.3 22.5 0.00 0.03 0.03 50 1012.9
20260509174818 19 96 1.6 3.2 0.00 1.45 1.45 99 1013.1
20260509174704 24 291 4.8 19.3 0.00 0.03 0.03 54 1012.8
20260509174556 19 318 6.4 9.7 0.00 0.00 0.00 75 1009.6
20260509174314 19 100 0.0 1.6 0.00 1.45 1.45 99 1013.0
20260509174204 23 208 6.4 20.9 0.00 0.03 0.03 54 1012.8
20260509173810 18 71 3.2 3.2 0.00 1.45 1.45 99 1013.4
20260509173703 23 306 9.7 19.3 0.00 0.03 0.03 53 1013.0
20260509173306 18 49 0.0 0.0 0.00 1.45 1.45 99 1013.7
20260509173204 24 255 4.8 16.1 0.00 0.03 0.03 55 1013.0
20260509173059 19 307 6.4 9.7 0.00 0.00 0.00 74 1009.5
20260509172802 18 104 0.0 1.6 0.00 1.45 1.45 99 1014.0
20260509172703 24 302 8.0 33.8 0.00 0.03 0.03 57 1013.0
20260509172259 18 91 3.2 3.2 0.00 1.45 1.45 99 1014.2
20260509172203 23 260 8.0 24.1 0.00 0.03 0.03 59 1013.2
20260509171755 18 48 0.0 1.6 0.00 1.45 1.45 99 1014.4
20260509171703 23 259 12.9 24.1 0.00 0.03 0.03 56 1013.1
20260509171554 20 307 8.0 12.9 0.00 0.00 0.00 73 1009.4
20260509171251 18 21 0.0 0.0 0.00 1.45 1.45 99 1014.9
20260509170747 18 28 1.6 1.6 0.00 1.45 1.45 99 1014.9
20260509170704 23 306 11.3 19.3 0.00 0.03 0.03 61 1013.0
20260509170243 18 14 0.0 0.0 0.00 1.45 1.45 99 1015.1
20260509170203 23 316 6.4 16.1 0.00 0.03 0.03 63 1013.0
20260509170053 20 302 6.4 14.5 0.00 0.00 0.00 71 1009.6
20260509165742 18 19 0.0 0.0 0.00 1.45 1.45 99 1015.4
20260509165704 23 88 6.4 12.9 0.00 0.03 0.03 64 1012.9
20260509165237 18 89 0.0 0.0 0.00 1.45 1.45 99 1015.6
20260509165204 23 273 6.4 16.1 0.00 0.03 0.03 65 1013.1
20260509164734 18 17 0.0 0.0 0.00 1.45 1.45 99 1015.6
20260509164704 23 208 6.4 20.9 0.00 0.03 0.03 66 1013.2
20260509164554 21 324 9.7 14.5 0.00 0.00 0.00 64 1009.6
20260509164229 18 80 0.0 0.0 0.00 1.45 1.45 99 1015.5
20260509164204 23 163 8.0 16.1 0.00 0.03 0.03 66 1013.2
20260509163727 18 15 0.0 1.6 0.00 1.45 1.45 99 1015.5
20260509163223 18 2 0.0 0.0 0.00 1.45 1.45 99 1015.7
20260509163100 23 346 4.8 12.9 0.00 0.00 0.00 63 1009.6
20260509162721 18 337 1.6 3.2 0.00 1.45 1.45 99 1015.5
20260509162703 22 294 8.0 14.5 0.00 0.03 0.03 70 1013.4
20260509162216 18 54 0.0 1.6 0.00 1.45 1.45 99 1015.4
20260509162204 22 84 4.8 11.3 0.00 0.03 0.03 69 1013.6
20260509161712 18 119 1.6 3.2 0.00 1.45 1.45 99 1015.6
20260509161704 22 287 9.7 16.1 0.00 0.03 0.03 69 1013.9
20260509161551 23 329 0.0 16.1 0.00 0.00 0.00 61 1009.6
20260509161208 18 22 1.6 1.6 0.30 1.45 1.45 99 1015.6
20260509160703 21 247 6.4 14.5 0.00 0.03 0.03 74 1013.9
20260509160200 18 14 0.0 0.0 0.61 1.40 1.40 99 1016.0
20260509160052 23 7 1.6 4.8 0.00 0.00 0.00 61 1009.6
20260509155704 22 206 4.8 12.9 0.00 0.03 0.03 74 1014.0
20260509155655 18 76 0.0 1.6 0.48 1.35 1.35 99 1015.8
20260509155204 22 272 4.8 9.7 0.00 0.03 0.03 75 1014.1
20260509155152 18 358 0.0 0.0 0.30 1.30 1.30 99 1015.7
20260509154704 21 126 3.2 8.0 0.00 0.03 0.03 77 1014.1
20260509154648 17 52 0.0 0.0 0.30 1.27 1.27 99 1015.5
20260509154550 23 261 1.6 8.0 0.00 0.00 0.00 63 1009.7
20260509154204 21 312 3.2 14.5 0.00 0.03 0.03 77 1014.3
20260509154145 18 32 0.0 1.6 0.30 1.24 1.24 99 1015.2
20260509153704 21 246 3.2 11.3 0.00 0.03 0.03 76 1014.5
20260509153642 17 139 1.6 3.2 0.30 1.22 1.22 99 1015.1
20260509153204 21 193 8.0 20.9 0.00 0.03 0.03 76 1014.8
20260509153139 17 108 1.6 1.6 0.30 1.19 1.19 99 1015.3
20260509153053 23 283 4.8 8.0 0.00 0.00 0.00 62 1009.7
20260509152704 22 239 4.8 11.3 0.00 0.03 0.03 76 1014.9
20260509152634 18 335 0.0 0.0 0.13 1.17 1.17 99 1015.5
20260509152203 21 358 4.8 19.3 0.00 0.03 0.03 76 1015.0
20260509152132 17 78 1.6 1.6 0.30 1.14 1.14 99 1015.5
20260509151704 21 255 4.8 12.9 0.00 0.03 0.03 76 1015.2
20260509151628 17 358 0.0 0.0 0.48 1.14 1.14 99 1015.4
20260509151546 23 324 0.0 8.0 0.00 0.00 0.00 61 1009.9
20260509151204 21 240 4.8 16.1 0.00 0.03 0.03 76 1015.4
20260509151126 17 275 1.6 1.6 0.36 1.09 1.09 99 1015.4
20260509150704 21 308 9.7 16.1 0.00 0.03 0.03 76 1015.3
20260509150624 18 226 6.4 9.7 0.30 1.07 1.07 99 1015.0
20260509150204 21 271 4.8 19.3 0.00 0.03 0.03 77 1015.5
20260509150122 18 344 1.6 3.2 0.30 1.04 1.04 99 1015.0
20260509150045 23 250 1.6 6.4 0.00 0.00 0.00 59 1010.3
20260509145704 21 299 8.0 19.3 0.00 0.03 0.03 77 1015.5
20260509145617 18 41 1.6 1.6 0.48 1.02 1.02 99 1014.9
20260509145204 21 312 8.0 16.1 0.00 0.03 0.03 77 1015.8
20260509145113 18 36 3.2 4.8 0.89 1.02 1.02 99 1014.8
20260509144704 21 179 8.0 16.1 0.00 0.03 0.03 77 1015.7
20260509144610 18 60 6.4 8.0 3.00 0.94 0.94 99 1014.6
20260509144543 24 246 3.2 6.4 0.00 0.00 0.00 61 1010.4
20260509144107 18 45 4.8 8.0 3.48 0.84 0.84 99 1014.6
20260509143703 21 150 4.8 9.7 0.00 0.03 0.03 78 1015.6
20260509143604 19 317 3.2 3.2 1.19 0.46 0.46 99 1014.6
20260509143203 21 287 4.8 12.9 0.00 0.03 0.03 78 1015.5
20260509143101 19 57 4.8 9.7 0.13 0.28 0.28 99 1013.9
20260509143049 23 211 1.6 8.0 0.00 0.00 0.00 61 1010.7
20260509142703 20 257 4.8 12.9 0.00 0.03 0.03 80 1015.5
20260509142556 19 28 1.6 1.6 0.18 0.25 0.25 99 1013.7
20260509142203 20 313 4.8 12.9 0.00 0.03 0.03 80 1015.5
20260509142053 19 57 4.8 4.8 0.18 0.25 0.25 99 1013.5
20260509141703 20 177 4.8 9.7 0.00 0.03 0.03 80 1015.4
20260509141549 19 17 3.2 3.2 0.00 0.23 0.23 99 1013.8
20260509141540 22 236 4.8 12.9 0.00 0.00 0.00 64 1010.8
20260509141203 19 122 4.8 11.3 0.00 0.03 0.03 81 1015.5
20260509141046 19 352 0.0 0.0 0.00 0.23 0.23 99 1013.5
20260509140703 20 312 6.4 14.5 0.00 0.03 0.03 81 1015.7
20260509140543 19 49 0.0 0.0 0.00 0.23 0.23 99 1013.4
20260509140203 19 149 3.2 12.9 0.00 0.03 0.03 82 1015.6
20260509140050 23 246 8.0 14.5 0.00 0.00 0.00 64 1010.9
20260509140041 19 38 0.0 0.0 0.00 0.23 0.23 99 1013.3
20260509135703 18 312 4.8 9.7 0.00 0.03 0.03 84 1015.5
20260509135537 20 26 0.0 0.0 0.13 0.23 0.23 99 1013.2
20260509135204 18 200 4.8 8.0 0.00 0.03 0.03 89 1015.6
20260509135035 19 323 0.0 0.0 0.13 0.23 0.23 99 1013.1
20260509134704 17 134 3.2 8.0 0.00 0.03 0.03 92 1015.7
20260509134538 23 226 3.2 14.5 0.00 0.00 0.00 62 1010.9
20260509134532 19 314 1.6 1.6 0.00 0.20 0.20 99 1013.2
20260509134204 17 295 4.8 9.7 0.00 0.03 0.03 94 1015.7
20260509134030 19 31 0.0 0.0 0.18 0.20 0.20 99 1013.2
20260509133703 16 193 1.6 3.2 0.00 0.03 0.03 95 1015.7
20260509133526 19 336 0.0 0.0 0.18 0.20 0.20 99 1013.2
20260509133203 16 254 1.6 3.2 0.00 0.03 0.03 96 1015.8
20260509133038 23 231 4.8 12.9 0.00 0.00 0.00 64 1010.8
20260509133024 19 338 0.0 0.0 0.00 0.18 0.18 99 1013.2
20260509132522 19 324 0.0 1.6 0.00 0.18 0.18 99 1013.4
20260509132204 15 228 3.2 3.2 0.00 0.03 0.03 96 1015.8
20260509132020 19 17 3.2 3.2 0.00 0.18 0.18 99 1013.1
20260509131704 15 239 3.2 4.8 0.00 0.03 0.03 96 1015.9
20260509131536 23 166 1.6 6.4 0.00 0.00 0.00 64 1010.9
20260509131516 19 2 0.0 0.0 0.00 0.18 0.18 99 1013.2
20260509131204 15 251 3.2 3.2 0.00 0.03 0.03 96 1015.9
20260509131013 19 346 0.0 0.0 0.00 0.18 0.18 99 1013.1
20260509130508 19 3 1.6 1.6 0.00 0.18 0.18 99 1013.0
20260509130204 15 243 4.8 4.8 0.00 0.03 0.03 96 1015.9
20260509130035 22 247 1.6 8.0 0.00 0.00 0.00 64 1011.1
20260509130006 19 352 1.6 1.6 0.13 0.18 0.18 99 1012.9
20260509125703 15 266 0.0 1.6 0.00 0.03 0.03 96 1015.8
20260509125502 19 293 1.6 1.6 0.30 0.18 0.18 99 1012.7
20260509125203 15 291 0.0 3.2 0.00 0.03 0.03 97 1015.8
20260509124958 19 342 1.6 1.6 0.48 0.15 0.15 99 1012.5
20260509124534 23 101 8.0 20.9 0.00 0.00 0.00 53 1011.2
20260509124455 19 45 3.2 3.2 0.30 0.13 0.13 99 1012.3
20260509124203 15 293 1.6 3.2 0.00 0.03 0.03 97 1015.9
20260509123952 19 26 1.6 1.6 0.18 0.08 0.08 99 1012.5
20260509123704 13 235 1.6 3.2 0.00 0.03 0.03 97 1015.9
20260509123450 19 45 0.0 0.0 0.18 0.08 0.08 99 1012.3
20260509123204 13 325 1.6 4.8 0.00 0.03 0.03 97 1016.0
20260509123039 23 97 14.5 20.9 0.00 0.00 0.00 55 1011.4
20260509122945 19 52 0.0 0.0 0.00 0.05 0.05 99 1012.2
20260509122703 13 256 4.8 8.0 0.03 0.03 0.03 97 1016.0
20260509122443 19 25 3.2 3.2 0.00 0.05 0.05 99 1012.0
20260509122203 12 238 3.2 8.0 0.03 0.03 0.03 97 1016.1
20260509121939 19 14 0.0 0.0 0.00 0.05 0.05 99 1012.0
20260509121704 12 287 3.2 4.8 0.03 0.03 0.03 97 1016.2
20260509121534 23 90 12.9 27.4 0.00 0.00 0.00 55 1011.2
20260509121436 18 32 0.0 0.0 0.00 0.05 0.05 99 1011.8
20260509121203 12 292 1.6 4.8 0.03 0.03 0.03 97 1016.1
20260509120934 18 52 0.0 0.0 0.00 0.05 0.05 99 1011.6
20260509120703 12 189 3.2 4.8 0.03 0.03 0.03 96 1016.2
20260509120432 -17 46 1.6 1.6 0.00 0.05 0.05 1011.5
20260509120203 12 269 3.2 8.0 0.00 0.00 0.00 96 1016.1
20260509120036 23 84 12.9 25.7 0.00 0.00 0.00 56 1011.2
20260509115930 -17 304 0.0 0.0 0.00 0.05 0.05 1011.6
20260509115704 12 296 1.6 8.0 0.00 0.00 0.00 97 1016.0
20260509115427 -17 51 0.0 1.6 0.00 0.05 0.05 1011.5
20260509115204 12 211 4.8 9.7 0.00 0.00 0.00 97 1016.0
20260509114924 -17 11 0.0 0.0 0.00 0.05 0.05 1011.5
20260509114704 12 243 4.8 8.0 0.00 0.00 0.00 96 1016.0
20260509114534 23 119 12.9 24.1 0.00 0.00 0.00 55 1011.1
20260509114423 -17 7 1.6 1.6 0.00 0.05 0.05 1011.3
20260509114203 11 253 3.2 4.8 0.00 0.00 0.00 96 1016.0
20260509113922 -17 1 0.0 1.6 0.00 0.05 0.05 1011.3
20260509113703 11 212 1.6 4.8 0.00 0.00 0.00 96 1016.1
20260509113419 -17 11 1.6 1.6 0.00 0.05 0.05 1011.3
20260509113203 11 216 1.6 4.8 0.00 0.00 0.00 96 1016.2
20260509113031 23 88 14.5 20.9 0.00 0.00 0.00 57 1011.2
20260509112915 -17 346 0.0 0.0 0.00 0.05 0.05 1011.4
20260509112704 11 295 1.6 8.0 0.00 0.00 0.00 96 1016.1
20260509112413 -17 352 0.0 0.0 0.00 0.05 0.05 1011.3
20260509112204 11 269 3.2 4.8 0.00 0.00 0.00 96 1016.2
20260509111910 -17 342 0.0 1.6 0.00 0.05 0.05 1011.2
20260509111704 11 199 1.6 4.8 0.00 0.00 0.00 96 1016.1
20260509111529 23 87 11.3 25.7 0.00 0.00 0.00 59 1011.4
20260509111406 -17 359 1.6 1.6 0.13 0.05 0.05 1010.8
20260509111204 11 218 1.6 4.8 0.00 0.00 0.00 96 1016.2
20260509110904 -17 11 0.0 0.0 0.13 0.05 0.05 1010.7
20260509110400 -17 34 0.0 0.0 0.00 0.03 0.03 1010.6
20260509110204 11 207 3.2 4.8 0.00 0.00 0.00 96 1016.2
20260509110028 23 89 14.5 22.5 0.00 0.00 0.00 60 1011.5
20260509105858 -17 7 0.0 0.0 0.00 0.03 0.03 1010.8
20260509105703 10 249 1.6 4.8 0.00 0.00 0.00 96 1016.3
20260509105356 -17 348 0.0 0.0 0.00 0.03 0.03 1010.7
20260509105203 10 235 1.6 4.8 0.00 0.00 0.00 96 1016.4
20260509104853 -17 1 0.0 0.0 0.00 0.03 0.03 1010.5
20260509104529 23 92 11.3 22.5 0.00 0.00 0.00 60 1011.5
20260509104349 -17 23 1.6 3.2 0.00 0.03 0.03 1010.4
20260509104204 10 251 1.6 8.0 0.00 0.00 0.00 96 1016.5
20260509103847 -17 3 1.6 1.6 0.00 0.03 0.03 1010.2
20260509103704 10 235 4.8 8.0 0.00 0.00 0.00 96 1016.6
20260509103344 -17 20 1.6 1.6 0.00 0.03 0.03 1010.3
20260509103203 10 244 1.6 3.2 0.00 0.00 0.00 96 1016.6
20260509103026 23 97 12.9 22.5 0.00 0.00 0.00 59 1011.8
20260509102843 -17 6 0.0 1.6 0.00 0.03 0.03 1009.8
20260509102703 10 343 1.6 3.2 0.00 0.00 0.00 96 1016.6
20260509102340 -17 7 0.0 0.0 0.00 0.03 0.03 1009.7
20260509102204 10 31 0.0 3.2 0.00 0.00 0.00 96 1016.5
20260509101835 -17 24 3.2 3.2 0.00 0.03 0.03 1009.6
20260509101704 10 262 0.0 3.2 0.00 0.00 0.00 96 1016.4
20260509101524 23 132 17.7 24.1 0.00 0.00 0.00 60 1011.8
20260509101332 -17 62 1.6 1.6 0.00 0.03 0.03 1009.5
20260509101203 10 210 3.2 4.8 0.00 0.00 0.00 96 1016.3
20260509100830 -17 345 0.0 0.0 0.00 0.03 0.03 1009.5
20260509100704 10 236 1.6 1.6 0.00 0.00 0.00 96 1016.4
20260509100327 -17 25 0.0 0.0 0.00 0.03 0.03 1009.4
20260509100204 10 271 0.0 1.6 0.00 0.00 0.00 96 1016.4
20260509100021 23 119 16.1 22.5 0.00 0.00 0.00 62 1011.8
20260509095823 -17 8 0.0 0.0 0.00 0.03 0.03 1009.5
20260509095704 10 251 0.0 1.6 0.00 0.00 0.00 96 1016.3
20260509095321 -17 40 0.0 0.0 0.00 0.03 0.03 1009.9
20260509095204 10 316 0.0 1.6 0.00 0.00 0.00 96 1016.4
20260509094818 -17 24 0.0 0.0 0.00 0.03 0.03 1010.0
20260509094704 10 247 1.6 3.2 0.00 0.00 0.00 96 1016.5
20260509094517 22 119 17.7 22.5 0.00 0.00 0.00 63 1011.9
20260509094314 -17 29 0.0 0.0 0.00 0.03 0.03 1010.1
20260509094204 10 242 1.6 3.2 0.00 0.00 0.00 96 1016.5
20260509093812 -17 15 0.0 0.0 0.00 0.03 0.03 1010.6
20260509093703 10 240 0.0 3.2 0.00 0.00 0.00 95 1016.5
20260509093309 -17 324 0.0 0.0 0.00 0.03 0.03 1010.9
20260509093204 10 280 1.6 3.2 0.00 0.00 0.00 95 1016.5
20260509093015 21 127 11.3 20.9 0.00 0.00 0.00 66 1011.9
20260509092808 -17 5 0.0 0.0 0.00 0.03 0.03 1010.8
20260509092704 10 252 1.6 3.2 0.00 0.00 0.00 95 1016.5
20260509092306 -17 268 0.0 1.6 0.00 0.03 0.03 1010.9
20260509092204 10 313 1.6 3.2 0.00 0.00 0.00 95 1016.5
20260509091803 -17 19 0.0 0.0 0.00 0.03 0.03 1010.7
20260509091703 10 322 1.6 3.2 0.00 0.00 0.00 95 1016.5
20260509091513 21 112 14.5 25.7 0.00 0.00 0.00 66 1011.9
20260509091259 -17 28 0.0 0.0 0.00 0.03 0.03 1010.4
20260509091204 10 225 0.0 3.2 0.00 0.00 0.00 95 1016.4
20260509090757 -17 55 0.0 1.6 0.00 0.03 0.03 1010.3
20260509090703 10 225 0.0 1.6 0.00 0.00 0.00 95 1016.5
20260509090254 -17 29 0.0 0.0 0.00 0.03 0.03 1009.9
20260509090203 10 117 0.0 1.6 0.00 0.00 0.00 95 1016.5
20260509090012 21 115 12.9 22.5 0.00 0.00 0.00 67 1011.7
20260509085751 -17 38 0.0 0.0 0.00 0.03 0.03 1010.4
20260509085248 -17 14 0.0 0.0 0.00 0.03 0.03 1010.4
20260509085204 10 130 0.0 1.6 0.00 0.00 0.00 95 1016.5
20260509084745 -17 41 0.0 0.0 0.00 0.03 0.03 1010.7
20260509084703 10 227 0.0 1.6 0.00 0.00 0.00 95 1016.6
20260509084512 21 130 16.1 24.1 0.00 0.00 0.00 67 1011.5
20260509084242 -17 41 0.0 0.0 0.00 0.03 0.03 1011.1
20260509084204 10 230 0.0 1.6 0.00 0.00 0.00 95 1016.6
20260509083740 -17 89 0.0 0.0 0.00 0.03 0.03 1011.6
20260509083703 10 230 0.0 1.6 0.00 0.00 0.00 95 1016.5
20260509083236 -17 48 0.0 0.0 0.00 0.03 0.03 1012.2
20260509083203 10 205 0.0 1.6 0.00 0.00 0.00 94 1016.6
20260509083015 21 119 14.5 24.1 0.00 0.00 0.00 68 1011.8
20260509082733 -17 78 0.0 1.6 0.00 0.03 0.03 1012.9
20260509082704 10 205 0.0 3.2 0.00 0.00 0.00 94 1016.8
20260509082229 -17 18 0.0 0.0 0.00 0.03 0.03 1013.1
20260509082204 10 232 1.6 1.6 0.00 0.00 0.00 94 1016.8